Regional Weather Roundup
Issued by NWS

Home | Current Version | Previous Version | Graphics & Text | Print | Product List | Glossary Off
Versions: 1 2 3 4 5 6 7 8 9 10 11 12 13 14 15 16 17 18 19 20 21 22 23 24 25 26 27 28 29 30 31 32 33 34 35 36 37 38 39 40 41 42 43 44 45 46 47 48 49 50

000
ASUS43 KTOP 051308
RWRKS

WEATHER ROUNDUP FOR KANSAS
NATIONAL WEATHER SERVICE GOODLAND KS
800 AM CDT THU MAY 05 2016

NOTE:  "FAIR" INDICATES FEW OR NO CLOUDS BELOW 12,000 FEET WITH NO
SIGNIFICANT WEATHER AND/OR OBSTRUCTIONS TO VISIBILITY.

KSZ001>006-013>018-027>032-041>047-051400-
NORTHWEST KANSAS

CITY           SKY/WX    TMP DP  RH WIND       PRES   REMARKS
GOODLAND       SUNNY     56  42  59 S13       30.11R
HAYS           SUNNY     48  39  71 W5        30.12R
HILL CITY      SUNNY     48  43  82 CALM      30.12R
RUSSELL        SUNNY     51  44  77 N3        30.10R
$$

KSZ061>065-074>080-084>089-051400-
SOUTHWEST KANSAS

CITY           SKY/WX    TMP DP  RH WIND       PRES   REMARKS
DODGE CITY     SUNNY     52  44  74 S8        30.13R
ELKHART          N/A     56  39  53 S12         N/A
GARDEN CITY    SUNNY     53  45  74 S5        30.12R
GREAT BEND     SUNNY     48  39  71 CALM      30.12R
LIBERAL        SUNNY     54  45  71 S3        30.14R
PRATT          SUNNY     50  43  78 CALM      30.12R
$$

KSZ066>073-081>083-090>101-051400-
SOUTHEAST KANSAS

CITY           SKY/WX    TMP DP  RH WIND       PRES   REMARKS
CHANUTE        SUNNY     52  43  71 NW5       30.08R
COFFEYVILLE    SUNNY     52  46  80 N3        30.08R
HUTCHINSON     SUNNY     51  45  79 NW5       30.11R
MEDICINE LODGE   N/A     48  44  86 CALM      30.11R
NEWTON         SUNNY     48  37  66 NW5       30.12R
PARSONS        SUNNY     51  48  89 CALM      30.09R
WICHITA INTL   SUNNY     53  42  66 NW6       30.11R
WICHITA JABRA  SUNNY     52  43  71 NW7       30.10R
WICHITA MCCONL SUNNY     52  43  71 CALM      30.11R
WINFIELD       SUNNY     50  46  86 CALM      30.21F
$$

KSZ007>012-019>026-033>040-048>060-102>105-051400-
NORTHEAST KANSAS

CITY           SKY/WX    TMP DP  RH WIND       PRES   REMARKS
CONCORDIA      SUNNY     49  40  71 W6        30.11R
EMPORIA        SUNNY     51  44  77 NW3       30.08R
LAWRENCE       SUNNY     50  45  83 NW8       30.07R
MANHATTAN      MOSUNNY   48  43  82 SW3       30.10R
MARYSVILLE     SUNNY     46  45  93 CALM      30.09R
OLATHE IND     SUNNY     52  44  74 NW6       30.07R
OLATHE EXE     SUNNY     54  40  59 N7        30.06R
SALINA         SUNNY     50  42  74 CALM      30.11R
TOPEKA BILLARD SUNNY     51  44  77 W5        30.08R
TOPEKA FORBES  SUNNY     55  47  74 NW6       30.07R
$$




USA.gov is the U.S. government's official web portal to all federal, state and local government web resources and services.